Regional Weather Roundup
Issued by NWS

Home | Current Version | Previous Version | Graphics & Text | Print | Product List | Glossary On
Versions: 1 2 3 4 5 6 7 8 9 10 11 12 13 14 15 16 17 18 19 20 21 22 23 24 25 26 27 28 29 30 31 32 33 34 35 36 37 38 39 40 41 42 43 44 45 46 47 48 49 50
000
ASUS43 KMPX 192001
RWRMN
WEATHER ROUNDUP FOR MINNESOTA
NATIONAL WEATHER SERVICE TWIN CITIES/CHANHASSEN MN
300 PM CDT THU APR 19 2018


NOTE: "FAIR" INDICATES FEW OR NO CLOUDS BELOW 12,000 FEET WITH NO
SIGNIFICANT WEATHER AND/OR OBSTRUCTIONS TO VISIBILITY. N/A MEANS
CURRENT SKY AND/OR WEATHER CONDITIONS ARE NOT AVAILABLE.

MNZ060>063-068>070-192100-
   Twin Cities Metro

CITY           SKY/WX    TMP DP  RH WIND       PRES   REMARKS
TWIN CITIES    FAIR      50  18  28 NW9       30.48S
ST PAUL        FAIR      48  18  30 VRB7      30.48F
CRYSTAL        FAIR      48  16  27 W5        30.47S
BLAINE         MOSUNNY   52  18  25 W3        30.47S
LAKEVILLE      FAIR      46  19  34 W9        30.48S
EDEN PRAIRIE   FAIR      49  19  30 SW9       30.47S
SOUTH ST PAUL  FAIR      50  15  24 W6        30.47S
LAKE ELMO      FAIR      46  21  36 W8        30.48R
$$
MNZ001>005-007-008-013>017-022>024-027-028-192100-
   Northwest Minnesota

CITY           SKY/WX    TMP DP  RH WIND       PRES   REMARKS
BEMIDJI        FAIR      53  19  25 NW6       30.39F
HALLOCK        FAIR      55  27  33 S5        30.39S
ROSEAU         FAIR      55  28  35 SW7       30.39F
WARROAD        FAIR      55  18  22 SW6       30.39F
THIEF RVR FALL FAIR      53  19  26 VRB6      30.41F
CROOKSTON      FAIR      52  27  37 W5        30.42F
FOSSTON        FAIR      55  19  24 S3        30.41F
DETROIT LAKES  FAIR      54  25  32 CALM      30.42F
MOORHEAD       FAIR      54  27  35 W3        30.42F
PARK RAPIDS    FAIR      52  16  24 SW5       30.41S
MAHNOMEN       FAIR      53  20  27 CALM      30.41F
$$
MNZ006-009>011-018-025>026-192100-
   North Central Minnesota

CITY           SKY/WX    TMP DP  RH WIND       PRES   REMARKS
BAUDETTE       FAIR      54  15  21 VRB5      30.39F
FLAG ISLAND    FAIR      37  27  65 SE7       30.39F
INTL FALLS     FAIR      53  12  19 SW8       30.39S
WASKISH        CLOUDY    54  16  22 SW8       30.40F
BIG FORK       FAIR      54  16  22 CALM      30.39F
LONGVILLE      FAIR      54  10  17 CALM      30.41F
GRAND RAPIDS   FAIR      51  13  21 CALM      30.42F
CRANE LAKE     FAIR      50   7  17 N3        30.41S
ORR            FAIR      52   3  14 CALM      30.37S
COOK           FAIR      52  14  22 CALM      30.40S
WALKER         FAIR      52  14  21 SE5       30.40S
$$
MNZ012-019>021-037-192100-
   Northeast Minnesota

CITY           SKY/WX    TMP DP  RH WIND       PRES   REMARKS
DULUTH         FAIR      51  11  20 W7        30.39F
ELY            FAIR      52   9  17 SW6       30.38S
HIBBING        FAIR      51  15  23 NW8       30.39F
EVELETH        FAIR      52  14  21 CALM      30.40F
DULUTH HARBOR  FAIR      54  12  19 E6        30.42F
TWO HARBORS    FAIR      61  27  27 NW3       30.37F
SILVER BAY     FAIR      52  19  28 S7        30.37S
GRAND MARAIS     N/A     40  26  57 W10       30.40S
G MARAIS ARPRT FAIR      48   7  18 NW3       30.36F
$$
MNZ029>031-032-039>041-046>048-054>057-064-192100-
   West Central Minnesota

CITY           SKY/WX    TMP DP  RH WIND       PRES   REMARKS
FERGUS FALLS   FAIR      52  30  43 S9        30.41F
WHEATON        SUNNY     54  28  37 CALM      30.44F
MORRIS         SUNNY     52  36  54 S7        30.44F
ALEXANDRIA     FAIR      53  26  35 SW6       30.44F
ELBOW LAKE     FAIR      52  32  45 SW6       30.43F
WADENA         FAIR      50  28  43 SW6       30.42F
GLENWOOD       FAIR      52  27  37 SW9       30.45F
APPLETON       SUNNY     50  25  37 S7        30.46F
BENSON         SUNNY     50  21  32 SW12      30.48F
ORTONVILLE     SUNNY     54  34  47 S8        30.44F
MADISON        SUNNY     48  32  53 S7        30.46F
WILLMAR        FAIR      48  30  49 SW13      30.49F
$$
MNZ033>034-036-042>043-049>051-058-059-192100-
   Central Minnesota

CITY           SKY/WX    TMP DP  RH WIND       PRES   REMARKS
ST CLOUD       FAIR      52  22  30 NW8       30.45F
SAUK CENTRE    FAIR      50  24  36 SW6       30.45F
PAYNESVILLE    FAIR      51  29  43 W9        30.46F
AITKIN         FAIR      54  18  24 SW6       30.41S
PINE RIVER     FAIR      50  19  29 SW9       30.44S
BRAINERD       FAIR      54  16  22 W8        30.43F
STAPLES        FAIR      48  18  29 CALM      30.43F
LONG PRAIRIE   FAIR      50  23  34 SW7       30.44F
LITTLE FALLS   FAIR      50   9  18 W6        30.45F
LITCHFIELD     FAIR      48  27  43 SW7       30.48F
BUFFALO        FAIR      48  21  33 SW8       30.49S
MAPLE LAKE     FAIR      51  24  34 SW6       30.48F
HUTCHINSON     FAIR      46  28  49 SW5       30.50F
$$
MNZ037-044-045-052-053-192100-
   East Central Minnesota

CITY           SKY/WX    TMP DP  RH WIND       PRES   REMARKS
PRINCETON      FAIR      54  19  26 W6        30.46S
MORA           FAIR      50  19  29 W9        30.45F
CAMBRIDGE      FAIR      52  28  40 W9        30.46S
RUSH CITY      FAIR      51  21  30 W9        30.45S
MOOSE LAKE     FAIR      52  21  30 NW3       30.40S
HINCKLEY       FAIR      54  23  30 W12       30.43S
CLOQUET        FAIR      54   9  16 N6        30.40F
MCGREGOR       FAIR      54  14  20 NW5       30.42S
$$
MNZ071>073-080-081-089-090-097-098-192100-
   Southwest Minnesota

CITY           SKY/WX    TMP DP  RH WIND       PRES   REMARKS
MONTEVIDEO     SUNNY     46  21  36 SW7       30.48F
GRANITE FALLS  SUNNY     44  31  59 S7        30.50S
CANBY          SUNNY     47  19  32 SW7       30.47F
MARSHALL       SUNNY     42  26  53 W5        30.49S
REDWOOD FALLS  SUNNY     40  22  48 S6        30.48F
OLIVIA         SUNNY     46  30  53 SW7       30.48S
PIPESTONE      SUNNY    N/A N/A N/A CALM      30.46F
WINDOM           N/A     39  18  41 SE6       30.49S
WORTHINGTON    SUNNY     37  23  56 SE7       30.48F
JACKSON        SUNNY     39  23  52 SE3       30.49S
TRACY          SUNNY     42  29  60 W9        30.48S
SLAYTON        SUNNY     40  26  57 SW5       30.49S
$$
MNZ065>067-074>077-082>085-091>093-192100-
   South Central Minnesota

CITY           SKY/WX    TMP DP  RH WIND       PRES   REMARKS
MANKATO        FAIR      43  19  38 NW6       30.50F
NEW ULM        SUNNY     43  19  39 CALM      30.49F
ST JAMES       SUNNY     43  18  36 CALM      30.51F
FAIRMONT       SUNNY     39  20  46 NE5       30.50F
GLENCOE        FAIR      45  23  42 SW3       30.49S
OWATONNA       FAIR      39  28  65 SW5       30.50S
WASECA         FAIR      39  27  60 SW5       30.51F
ALBERT LEA     FAIR      39  18  41 NW3       30.50S
$$
MNZ078>079-086>088-094>096-192100-
   Southeast Minnesota

CITY           SKY/WX    TMP DP  RH WIND       PRES   REMARKS
ROCHESTER      FAIR      41  26  55 NW8       30.48S
RED WING       FAIR      50  10  20 NW9       30.47S
STANTON        FAIR      46  20  36 W7        30.48S
DODGE CENTER   FAIR      43  18  36 NW8       30.49S
WINONA         FAIR      48  23  37 NW10G16   30.46R
AUSTIN           N/A     43  18  36 NW7       30.49S
PRESTON        FAIR      41  22  46 NW10      30.48S
$$
ABBREVIATIONS USED IN REMARKS
   TC - TEMPERATURES IN CELSIUS
  WCI - WIND CHILL INDEX
   HX - HEAT INDEX
  VSB - VISIBILITY
$$




USA.gov is the U.S. government's official web portal to all federal, state and local government web resources and services.